Tracking 19638 objects as of 21-Apr-2019
HD Live streaming from Space Station
objects crossing your sky now

CBERS 1 DEB

Track CBERS 1 DEB now!
10-day predictions


NORAD ID: 32085
Int'l Code: 1999-057QZ
Perigee: 634.8 km
Apogee: 644.1 km
Inclination: 98.3 °
Period: 97.4 minutes
Semi major axis: 7010 km
RCS: 0.0114 m2 (small)
Launch date: October 14, 1999
Source: China/Brazil (CHBZ)
Launch site: Taiyaun Space Center, China (TSC)

Note: This is SATELLITE DEBRIS
aabbcc
Your satellite tracking list
Your tracking list is empty




NASA's NSSDC Master Catalog

Two Line Element Set (TLE):
1 32085U 99057QZ  19110.34618087  .00002434  00000-0  33639-3 0  9997
2 32085  98.2766 147.3046 0006661 123.9982 236.1862 14.79059277628775
Source of the keplerian elements: AFSPC